St. Cloud, MN

10:19 AM CDT on July 23, 2019 (GMT -0500)
Saint Cloud Regional

Weather History for KSTC - May, 2019

Change the Weather History Date:

Sunday, May 12, 2019

  Actual Average Record
Temperature  
Mean Temperature 50 °F 55 °F  
Max Temperature 60 °F 68 °F 95 °F (1900)
Min Temperature 39 °F 43 °F 21 °F (1946)
Degree Days  
Heating Degree Days 15 10  
Month to date heating degree days 220 142  
Since 1 July heating degree days 9018 8309  
Cooling Degree Days 0 1  
Month to date cooling degree days 0 4  
Year to date cooling degree days 0 6  
Growing Degree Days 2 (Base 50)    
Moisture  
Dew Point 39 °F    
Average Humidity 64    
Maximum Humidity 89    
Minimum Humidity 39    
Precipitation  
Precipitation 0.00 in 0.09 in 1.31 in (1999)
Month to date precipitation 1.38 1.14  
Year to date precipitation 8.73 6.50  
Snow  
Snow 0.00 in 0.00 in T in (1953)
Month to date snowfall 0.4 0.0  
Since 1 July snowfall 68.9 45.7  
Snow Depth 0.00 in    
Sea Level Pressure  
Sea Level Pressure 29.91 in    
Wind  
Wind Speed 6 mph (SSE)    
Max Wind Speed 16 mph    
Max Gust Speed 21 mph    
Visibility 10 miles    
Events      
T = Trace of Precipitation, MM = Missing Value Source: NWS Daily Summary

Daily Weather History Graph

Daily Weather History Graph

Search for Another Location

Airport or City:

Astronomy

May. 12, 2019 Rise Set
Actual Time 5:49 AM CDT 8:36 PM CDT
Civil Twilight 5:15 AM CDT 9:10 PM CDT
Nautical Twilight 4:31 AM CDT 9:54 PM CDT
Astronomical Twilight 3:41 AM CDT 10:45 PM CDT
Moon 1:13 PM CDT (5/12) 2:56 AM CDT (5/12)
Length of Visible Light 15h 55m
Length of Day
14h 47m
First Quarter, 58% of the Moon is Illuminated
May 12
First Quarter
May 18
Full
May 26
Last Quarter
Jun 3
New
Jun 10
First Quarter

Hourly Weather History & Observations

Time (CDT) Temp. Windchill Dew Point Humidity Pressure Visibility Wind Dir Wind Speed Gust Speed Precip Events Conditions
12:53 AM 46.9 °F - 41.0 °F 80% 29.90 in 10.0 mi SSE 9.2 mph - N/A   Mostly Cloudy
1:53 AM 46.0 °F 42.5 °F 42.1 °F 86% 29.90 in 10.0 mi SE 6.9 mph - N/A   Mostly Cloudy
2:53 AM 46.0 °F 43.1 °F 41.0 °F 83% 29.90 in 10.0 mi ESE 5.8 mph - N/A   Clear
3:53 AM 44.1 °F 41.5 °F 41.0 °F 89% 29.90 in 10.0 mi ESE 4.6 mph - N/A   Mostly Cloudy
4:53 AM 44.1 °F 40.1 °F 41.0 °F 89% 29.90 in 10.0 mi ESE 6.9 mph - N/A   Partly Cloudy
5:53 AM 43.0 °F 40.3 °F 39.9 °F 89% 29.91 in 10.0 mi East 4.6 mph - N/A   Mostly Cloudy
6:03 AM 44.1 °F 41.5 °F 41.0 °F 89% 29.87 in 10.0 mi ESE 4.6 mph - N/A   Mostly Cloudy
6:51 AM 44.6 °F 41.4 °F 41.0 °F 87% 29.88 in 10.0 mi ESE 5.8 mph - N/A   Scattered Clouds
6:53 AM 44.1 °F 40.8 °F 41.0 °F 89% 29.91 in 10.0 mi ESE 5.8 mph - N/A   Partly Cloudy
7:23 AM 45.0 °F 41.8 °F 41.0 °F 86% 29.88 in 10.0 mi ESE 5.8 mph - N/A   Mostly Cloudy
7:53 AM 46.9 °F - 42.1 °F 83% 29.92 in 10.0 mi SE 5.8 mph - N/A   Mostly Cloudy
8:09 AM 48.0 °F - 42.1 °F 80% 29.88 in 10.0 mi SSE 8.1 mph - N/A   Scattered Clouds
8:53 AM 50.0 °F - 42.1 °F 74% 29.92 in 10.0 mi SSE 9.2 mph - N/A   Partly Cloudy
9:53 AM 54.0 °F - 43.0 °F 66% 29.92 in 10.0 mi South 8.1 mph - N/A   Mostly Cloudy
10:02 AM 54.0 °F - 42.1 °F 64% 29.89 in 10.0 mi South 8.1 mph - N/A   Scattered Clouds
10:53 AM 55.0 °F - 41.0 °F 59% 29.93 in 10.0 mi SSE 9.2 mph - N/A   Mostly Cloudy
11:53 AM 55.9 °F - 41.0 °F 57% 29.93 in 10.0 mi SW 10.4 mph 19.6 mph N/A   Overcast
12:53 PM 57.0 °F - 37.9 °F 49% 29.92 in 10.0 mi SSE 11.5 mph - N/A   Mostly Cloudy
1:53 PM 60.1 °F - 37.0 °F 42% 29.91 in 10.0 mi South 11.5 mph 17.3 mph N/A   Mostly Cloudy
2:53 PM 60.1 °F - 35.1 °F 39% 29.91 in 10.0 mi South 9.2 mph - N/A   Overcast
3:53 PM 59.0 °F - 35.1 °F 41% 29.91 in 10.0 mi South 8.1 mph - N/A   Overcast
4:53 PM 59.0 °F - 35.1 °F 41% 29.91 in 10.0 mi South 9.2 mph - N/A   Overcast
5:53 PM 59.0 °F - 35.1 °F 41% 29.90 in 10.0 mi SSW 6.9 mph - N/A   Overcast
6:53 PM 57.9 °F - 36.0 °F 44% 29.90 in 10.0 mi WSW 8.1 mph - N/A   Clear
7:53 PM 55.9 °F - 37.9 °F 51% 29.90 in 10.0 mi WSW 5.8 mph - N/A   Overcast
8:53 PM 54.0 °F - 37.9 °F 55% 29.91 in 10.0 mi WSW 5.8 mph - N/A   Overcast
9:53 PM 48.9 °F - 37.9 °F 66% 29.92 in 10.0 mi Calm Calm - N/A   Clear
10:53 PM 46.0 °F - 37.9 °F 73% 29.93 in 10.0 mi Calm Calm - N/A   Clear
11:53 PM 41.0 °F - 37.0 °F 86% 29.94 in 10.0 mi Calm Calm - N/A   Clear